#timestamp,LO_Frequency,Hit,StdDev 
1511071215.6,286047004.9,N
1511071235.5,286047002.9,N
1511071255.3,286047002.7,N
1511071275.1,286047005.0,N
1511071295.9,286047010.7,Y
1511071315.7,286047008.6,P
1511071335.5,286047010.8,P
1511071355.4,286047013.1,P
1511071375.2,286047016.2,Y
1511071395.0,286047006.1,P
1511071395.9,286047006.1,P
1511071415.8,286047005.4,P
1511071435.6,286047004.6,N
1511071455.4,286047006.3,Y
1511071475.3,286046999.9,P
1511071495.1,286047001.8,N
1511071515.8,286047004.8,N
1511071535.7,286047010.5,Y
1511071555.5,286047008.8,P
1511071575.3,286047008.6,P
1511071595.2,286047010.4,P
1511071615.9,286047012.0,Y
1511071635.7,286047001.3,P
1511071655.6,286047000.6,N
1511071675.4,286047000.1,N
1511071695.2,286046998.3,N
1511071715.1,286047003.7,N
1511071716.0,286047003.7,N
1511071735.8,286047001.9,N
1511071755.6,286047007.5,N
1511071775.5,286047010.2,Y
1511071795.3,286047005.1,P
1511071815.1,286047002.4,N
1511071835.9,286047004.3,P
1511071855.7,286047000.5,N
1511071875.5,286046993.5,Y
1511071895.4,286046990.3,P
1511071915.2,286046991.9,N
1511071935.0,286046992.3,N
1511071935.9,286046992.3,N
1511071955.8,286046990.6,N
1511071975.6,286046991.4,N
1511071995.4,286046983.8,Y
1511072015.3,286046988.6,P
1511072035.1,286046986.2,P
1511072036.0,286046986.2,P
1511072055.8,286046984.9,Y
1511072075.7,286046995.1,P
1511072095.5,286046992.1,N
1511072115.3,286046987.2,P
1511072135.2,286046985.6,Y
1511072155.9,286046987.9,P
1511072175.7,286046988.0,P
1511072195.6,286046986.3,P
1511072215.4,286046981.2,Y
1511072235.2,286046994.1,P
1511072255.1,286046993.6,N
1511072256.0,286046993.6,N
1511072275.8,286046995.9,N
1511072295.6,286046999.4,N
1511072315.5,286046995.1,N
1511072335.3,286046994.4,N
1511072355.1,286046996.1,N
1511072375.9,286046992.9,N
1511072395.7,286046989.1,Y
1511072415.5,286046991.9,P
1511072435.4,286046988.3,P
1511072455.2,286046987.4,P
1511072475.0,286046988.5,Y
1511072475.9,286046988.5,P
1511072495.8,286046997.7,N
1511072515.6,286046998.0,N
1511072535.4,286046995.1,N
1511072555.3,286046996.5,N
1511072575.1,286046998.1,N
1511072576.0,286046998.1,N
1511072595.8,286046996.5,N
1511072615.6,286046993.9,N
1511072635.5,286046994.8,N
1511072655.3,286046990.5,Y
1511072675.1,286047002.6,P
1511072695.9,286047010.5,N
1511072715.7,286047014.5,N
1511072735.5,286047017.7,N
1511072755.4,286047017.8,N
1511072775.2,286047015.7,N
1511072795.0,286047023.6,N
1511072795.9,286047023.6,N
1511072815.8,286047017.8,N
1511072835.6,286047017.1,N
1511072855.4,286047014.5,N
1511072875.3,286047017.1,N
1511072895.1,286047014.6,N
1511072896.0,286047014.6,N
1511072915.8,286047018.4,N
1511072935.7,286047022.0,Y
1511072955.5,286047005.0,P
1511072975.3,286047003.5,N
1511072995.2,286047003.3,N
1511073015.9,286047003.7,N
1511073035.7,286047006.0,N
1511073055.5,286047003.8,N
1511073075.4,286047002.5,N
1511073095.2,286046999.7,N
1511073115.0,286046998.8,N
1511073115.9,286046998.8,N
1511073135.8,286046998.2,N
1511073155.6,286047000.9,N
1511073175.4,286047000.9,N
1511073195.3,286046998.7,N
1511073215.1,286046999.8,N
1511073216.0,286046999.8,N
1511073235.8,286047002.5,N
1511073255.7,286047001.2,N
1511073275.5,286047002.8,N
1511073295.3,286046998.4,N
1511073315.2,286046999.3,N
1511073335.9,286047002.8,N
1511073355.7,286047000.4,N
1511073375.5,286047002.1,N
1511073395.4,286047002.0,N
1511073415.2,286047001.2,N
1511073435.0,286047002.4,N
1511073435.9,286047002.4,N
1511073455.8,286047000.7,N
1511073475.6,286046998.7,N
1511073495.4,286047000.3,N
1511073515.3,286046999.1,N
1511073535.1,286046996.0,N
1511073555.8,286046991.9,Y
1511073575.7,286046992.3,P
1511073595.5,286046990.2,N
1511073615.3,286046990.1,N
1511073635.2,286046992.7,N
1511073655.9,286046988.2,Y
1511073675.7,286046995.2,P
1511073695.6,286046994.6,P
1511073715.4,286046998.4,N
1511073735.2,286047001.3,N
1511073755.1,286047003.3,N
1511073756.0,286047003.3,N
1511073775.8,286047001.5,N
1511073795.6,286047005.7,N
1511073815.5,286047002.6,N
1511073835.3,286047000.1,N
1511073855.1,286046998.5,N
1511073875.8,286046999.5,N
1511073895.7,286046999.4,N
1511073915.5,286047001.1,N
1511073935.3,286047000.9,N
1511073955.2,286047007.0,N
1511073975.0,286047004.9,N
1511073975.9,286047004.9,N
1511073995.7,286047006.5,N
1511074015.6,286047005.1,N
1511074035.4,286046998.6,N
1511074055.2,286046998.6,N
1511074075.1,286047000.6,N
1511074076.0,286047000.6,N
1511074095.8,286046995.9,N
1511074115.6,286046987.0,Y
1511074135.5,286046982.6,P
1511074155.3,286046989.2,N
1511074175.1,286046996.1,N
1511074195.9,286046996.9,N
1511074215.7,286046999.5,N
1511074235.5,286047005.8,N
1511074255.4,286047005.9,N
1511074275.2,286047008.5,N
1511074295.0,286047006.9,N
1511074295.9,286047006.9,N
1511074315.7,286047011.3,N
1511074335.6,286047014.2,N
1511074355.4,286047016.9,N
1511074375.2,286047018.6,N
1511074395.1,286047012.5,N
1511074396.0,286047012.5,N
1511074415.8,286047014.6,N
1511074435.6,286047012.8,N
1511074455.5,286047015.3,N
1511074475.3,286047012.1,N
1511074495.1,286047014.7,N
1511074515.9,286047014.0,N
1511074535.7,286047015.7,N
1511074555.5,286047017.1,N
1511074575.4,286047016.1,N
1511074595.2,286047023.4,N
1511074615.0,286047020.6,N
1511074615.9,286047020.6,N
1511074635.8,286047026.1,N
1511074655.6,286047025.0,N
1511074675.4,286047026.1,N
1511074695.3,286047031.3,Y
1511074715.1,286047018.2,P
1511074716.0,286047018.2,P
1511074735.8,286047009.8,P
1511074755.7,286047006.4,N
1511074775.5,286047013.4,N
1511074795.3,286047008.6,N
